Regional Weather Roundup
Issued by NWS

Home | Current Version | Previous Version | Graphics & Text | Print | Product List | Glossary Off
Versions: 1 2 3 4 5 6 7 8 9 10 11 12 13 14 15 16 17 18 19 20 21 22 23 24 25 26 27 28 29 30 31 32 33 34 35 36 37 38 39 40 41 42 43 44 45 46 47 48 49 50

000
ASUS43 KMKX 180021
RWRWI

WISCONSIN REGIONAL WEATHER ROUNDUP
NATIONAL WEATHER SERVICE MILWAUKEE/SULLIVAN WI
700 PM CDT WED SEP 17 2014

NOTE: "FAIR" INDICATES FEW OR NO CLOUDS BELOW 12,000 FEET WITH NO
SIGNIFICANT WEATHER AND/OR OBSTRUCTIONS TO VISIBILITY.

WIZ001-002-006>008-014>016-023>028-180100-
NORTHWEST WISCONSIN

CITY           SKY/WX    TMP DP  RH WIND       PRES   REMARKS
SUPERIOR ARPT  CLOUDY    47  43  84 NE13G22   30.07S
6HR MIN TEMP:  47; 6HR MAX TEMP:  69;

ASHLAND        CLOUDY    46  42  86 NE14      30.09R
6HR MIN TEMP:  46; 6HR MAX TEMP:  61;

HAYWARD        CLOUDY    48  45  89 NE15      30.04R
6HR MIN TEMP:  49; 6HR MAX TEMP:  72;

SIREN          CLEAR     63  53  68 NE8       29.98R
6HR MIN TEMP:  63; 6HR MAX TEMP:  72;

RICE LAKE      CLEAR     66  51  59 CALM      29.98S
6HR MIN TEMP:  66; 6HR MAX TEMP:  71;

LADYSMITH      CLEAR     62  54  73 N12       29.99R HAZE
6HR MIN TEMP:  62; 6HR MAX TEMP:  71;

EAU CLAIRE     CLEAR     66  53  63 CALM      29.96R
6HR MIN TEMP:  66; 6HR MAX TEMP:  72;

MENOMONIE      CLEAR     67  54  62 CALM      29.96S
6HR MIN TEMP:  67; 6HR MAX TEMP:  73;

NEW RICHMOND   CLEAR     66  52  60 CALM      29.97R
6HR MIN TEMP:  66; 6HR MAX TEMP:  73;

OSCEOLA        CLEAR     67  54  62 CALM      29.99R
6HR MIN TEMP:  67; 6HR MAX TEMP:  73;

$$

WIZ003>005-009-010-017-018-180100-
NORTH CENTRAL WISCONSIN

CITY           SKY/WX    TMP DP  RH WIND       PRES   REMARKS
WOODRUFF       CLOUDY    57  49  75 NE7       30.01R
6HR MIN TEMP:  57; 6HR MAX TEMP:  72;

RHINELANDER    PTCLDY    57  48  72 NE6       30.00R
6HR MIN TEMP:  57; 6HR MAX TEMP:  70;

EAGLE RIVER    CLOUDY    52  45  76 NE10G16   30.01R
6HR MIN TEMP:  52; 6HR MAX TEMP:  69;

LAND O LAKES   MOCLDY    48  44  85 NE10      30.04R
6HR MIN TEMP:  48; 6HR MAX TEMP:  69;

PHILLIPS       PTCLDY    58  49  72 N10G16    29.99R
6HR MIN TEMP:  58; 6HR MAX TEMP:  69;

TOMAHAWK       MOCLDY    59  51  74 CALM      29.99R
6HR MIN TEMP:  59; 6HR MAX TEMP:  69;

MEDFORD        CLEAR     62  51  67 SW3       29.97S
6HR MIN TEMP:  62; 6HR MAX TEMP:  69;

MERRILL        CLOUDY    61  52  72 CALM      29.97R
6HR MIN TEMP:  61; 6HR MAX TEMP:  71;

$$

WIZ029-030-035-036-043>047-180100-
CENTRAL WISCONSIN

CITY           SKY/WX    TMP DP  RH WIND       PRES   REMARKS
WAUSAU         CLEAR     63  50  62 W6        29.95S
6HR MIN TEMP:  63; 6HR MAX TEMP:  70;

MOSINEE        CLEAR     63  54  72 SW3       29.98R
MARSHFIELD     CLEAR     63  52  67 W5        29.97S
6HR MIN TEMP:  63; 6HR MAX TEMP:  70;

STEVENS POINT  CLEAR     63  49  59 W3        29.98R
6HR MIN TEMP:  63; 6HR MAX TEMP:  68;

WAUPACA        CLEAR     65  51  62 CALM      29.96S
6HR MIN TEMP:  65; 6HR MAX TEMP:  73;

WAUTOMA        CLEAR     61  56  83 CALM      29.98R
6HR MIN TEMP:  61; 6HR MAX TEMP:  72;

WISC RAPIDS    PTCLDY    60  55  83 SW3       29.98S
6HR MIN TEMP:  60; 6HR MAX TEMP:  71;

CAMP DOUGLAS   PTCLDY    61  59  94 CALM      29.98R
$$

WIZ011>013-019>022-031-037>040-048>050-180100-
NORTHEAST WISCONSIN

CITY           SKY/WX    TMP DP  RH WIND       PRES   REMARKS
ANTIGO         CLEAR     60  50  70 W5        29.97R
6HR MIN TEMP:  60; 6HR MAX TEMP:  69;

STURGEON BAY   PTCLDY    57  50  77 N9        29.97R
6HR MIN TEMP:  61; 6HR MAX TEMP:  68;

GREEN BAY      CLEAR     62  53  72 SW5       29.95R
6HR MIN TEMP:  62; 6HR MAX TEMP:  71;

MANITOWOC      HAZE      57  52  82 S3        29.97R VSB 1/4
6HR MIN TEMP:  58; 6HR MAX TEMP:  69;

APPLETON       PTCLDY    64  48  55 SW6       29.96S
CLINTONVILLE   CLEAR     64  50  59 W3        29.95R
OSHKOSH        CLEAR     64  51  62 CALM      29.96S
6HR MIN TEMP:  64; 6HR MAX TEMP:  69;

$$

WIZ032>034-041-042-053>061-180100-
SOUTHWEST WISCONSIN

CITY           SKY/WX    TMP DP  RH WIND       PRES   REMARKS
LA CROSSE      CLEAR     66  54  65 CALM      29.96S
6HR MIN TEMP:  66; 6HR MAX TEMP:  72;

SPARTA         CLEAR     63  53  70 CALM      29.98S
6HR MIN TEMP:  63; 6HR MAX TEMP:  71;

VIROQUA        FAIR      60  55  83 CALM      29.98S
6HR MIN TEMP:  60; 6HR MAX TEMP:  69;

BOSCOBEL       CLEAR     65  56  72 CALM      29.97R
6HR MIN TEMP:  65; 6HR MAX TEMP:  73;

PRAIRIE DU CHI CLEAR     64  52  65 CALM      29.96S
6HR MIN TEMP:  64; 6HR MAX TEMP:  70;

PLATTEVILLE    FAIR      64  52  64 CALM      29.99R
6HR MIN TEMP:  64; 6HR MAX TEMP:  70;

$$

WIZ056-057-062-063-064-067-068-180100-
SOUTH CENTRAL WISCONSIN

CITY           SKY/WX    TMP DP  RH WIND       PRES   REMARKS
BARABOO/DELLS  CLEAR     62  50  66 CALM      29.98S
6HR MIN TEMP:  62; 6HR MAX TEMP:  70;

LONE ROCK      CLEAR     66  53  63 CALM      29.98R
6HR MIN TEMP:  66; 6HR MAX TEMP:  74;

WATERTOWN      CLEAR     62  50  66 CALM      29.98S
6HR MIN TEMP:  62; 6HR MAX TEMP:  69;

MADISON        PTCLDY    60  52  74 CALM      29.98R
6HR MIN TEMP:  60; 6HR MAX TEMP:  70;

MIDDLETON      CLOUDY    62  53  74 CALM      29.99R
6HR MIN TEMP:  62; 6HR MAX TEMP:  71;

MONROE         CLEAR     64  50  59 N3        29.98S
JANESVILLE     CLEAR     66  48  52 CALM      29.97R
$$

WIZ051-052-058>065-066-070>072-180100-
SOUTHEAST WISCONSIN

CITY           SKY/WX    TMP DP  RH WIND       PRES   REMARKS
MILWAUKEE      PTCLDY    60  48  64 S8        29.98S
6HR MIN TEMP:  60; 6HR MAX TEMP:  69;

WAUKESHA       PTCLDY    63  46  55 CALM      29.99R
MILWAUKEE/TIMM CLEAR     63  46  55 CALM      29.99R
RACINE         CLEAR     61  48  62 S7        30.00R
6HR MIN TEMP:  61; 6HR MAX TEMP:  69;

BURLINGTON     CLEAR     59  50  71 CALM      29.98S
6HR MIN TEMP:  59; 6HR MAX TEMP:  68;

KENOSHA        CLEAR     59  49  69 SE7       29.99R
6HR MIN TEMP:  59; 6HR MAX TEMP:  70;

FOND DU LAC    CLEAR     62  51  67 SW5       29.97S
6HR MIN TEMP:  62; 6HR MAX TEMP:  69;

SHEBOYGAN      CLEAR     60  51  72 S6        29.97S
6HR MIN TEMP:  59; 6HR MAX TEMP:  70;

WEST BEND      CLEAR     63  46  55 CALM      29.98R
JUNEAU         CLEAR     61  50  66 CALM      29.99S
6HR MIN TEMP:  61; 6HR MAX TEMP:  67;

$$

LSZ147-162-180100-
LAKE SUPERIOR

STATION/POSITION TIME  TEMP    WIND        PRES    WAVE
                       AIR SEA DIR/SP/G            HT/PER
                 (UTC) (F)     (DEG/KT/KT) (MB)    (FT/S)
W MID LAKE BUOY  2350   44 47   80/ 16/ 17 1019.9R   4/ 6
DEVILS ISLAND    0000   45      70/ 22/ 23 1019.9R
PORT WING        2300   50      50/ 14/ 18 1018.6R
SAXON HARBOR     2300   49      50/ 19/ 23 1018.3R
$$

LMZ867-665-643>646-180100-
LAKE MICHIGAN

STATION/POSITION TIME  TEMP    WIND        PRES    WAVE
                       AIR SEA DIR/SP/G            HT/PER
                 (UTC) (F)     (DEG/KT/KT) (MB)    (FT/S)
N MID LAKE BUOY  2350   55 58   10/ 19/ 23 1015.3R   2/ 4
NORTHPORT PIER   2300   57      10/ 13/ 19 1015.2R
SISTER BAY       2312           20/ 14/ 21   N/A
KEWAUNEE LAKESHO 2300   58     170/ 11/ 13 1013.2F
SHEBOYGAN LAKESH 0000   60 49  190/ 11/ 12 1015.3R
PORT WASHINGTON  2340   60     200/  6/  9 1015.6S
ATWATER BUOY     0000   60     170/  8/ 10 1016.4R
MILWAUKEE LAKESH 0000   59     160/  7/  8   N/A
S MID LAKE BUOY  2350   62 63  150/  4/  6 1015.8R   1
KENOSHA   LAKESH 0000   62     160/  9/ 10 1015.2R
$$

TC  - TEMPERATURE IN CELSIUS
VSB - VISIBILITY IN STATUTE MILES
WCI - WIND CHILL INDEX
HX  - HEAT INDEX




USA.gov is the U.S. government's official web portal to all federal, state and local government web resources and services.